Hourly Weather Chacabuco

Today, 23 June, Wednesday

Time Temperature Precipitation Wind Pressure Humidity
00:00 +7°C° 0 mm 4 mps 757 mmHg 93%
01:00 +8°C° 0 mm 3 mps 756 mmHg 94%
02:00 +8°C° 0 mm 3 mps 756 mmHg 95%
03:00 +8°C° 0 mm 3 mps 756 mmHg 95%
04:00 +8°C° 0 mm 3 mps 755 mmHg 94%
05:00 +8°C° 0 mm 4 mps 755 mmHg 93%
06:00 +8°C° 0 mm 4 mps 755 mmHg 92%
07:00 +10°C° 0 mm 4 mps 755 mmHg 91%
08:00 +10°C° 0 mm 4 mps 755 mmHg 90%
09:00 +11°C° 0 mm 4 mps 755 mmHg 87%
10:00 +12°C° 0 mm 4 mps 755 mmHg 85%
11:00 +13°C° 0 mm 5 mps 754 mmHg 82%
12:00 +13°C° 0 mm 4 mps 754 mmHg 82%
13:00 +13°C° 0 mm 4 mps 753 mmHg 83%
14:00 +13°C° 0 mm 4 mps 752 mmHg 83%
15:00 +13°C° 0 mm 4 mps 752 mmHg 84%
16:00 +13°C° 0 mm 3 mps 752 mmHg 85%
17:00 +13°C° 0 mm 3 mps 752 mmHg 86%
18:00 +13°C° 0 mm 2 mps 752 mmHg 89%
19:00 +13°C° 0 mm 2 mps 752 mmHg 91%
20:00 +12°C° 0 mm 2 mps 752 mmHg 94%
21:00 +12°C° 0 mm 2 mps 752 mmHg 94%
22:00 +12°C° 0 mm 2 mps 752 mmHg 95%
23:00 +12°C° 0 mm 2 mps 752 mmHg 96%

Tomorrow, 24 June, Thursday

Time Temperature Precipitation Wind Pressure Humidity
00:00 +12°C° 0 mm 2 mps 751 mmHg 96%
01:00 +11°C° 0 mm 3 mps 751 mmHg 96%
02:00 +11°C° 0 mm 4 mps 751 mmHg 96%
03:00 +11°C° 0 mm 4 mps 751 mmHg 95%
04:00 +11°C° 0 mm 4 mps 751 mmHg 94%
05:00 +10°C° 0 mm 5 mps 751 mmHg 93%
06:00 +10°C° 0 mm 5 mps 751 mmHg 92%
07:00 +10°C° 0 mm 5 mps 752 mmHg 91%
08:00 +10°C° 0 mm 5 mps 752 mmHg 90%
09:00 +13°C° 0 mm 5 mps 752 mmHg 82%
10:00 +14°C° 0 mm 6 mps 752 mmHg 73%
11:00 +16°C° 0 mm 6 mps 752 mmHg 65%
12:00 +16°C° 0 mm 7 mps 752 mmHg 54%
13:00 +17°C° 0 mm 7 mps 752 mmHg 44%
14:00 +18°C° 0 mm 7 mps 751 mmHg 33%
15:00 +16°C° 0 mm 6 mps 752 mmHg 37%
16:00 +15°C° 0 mm 5 mps 752 mmHg 42%
17:00 +13°C° 0 mm 3 mps 753 mmHg 47%
18:00 +12°C° 0 mm 3 mps 753 mmHg 50%
19:00 +11°C° 0 mm 3 mps 753 mmHg 54%
20:00 +10°C° 0 mm 3 mps 754 mmHg 57%
21:00 +10°C° 0 mm 3 mps 754 mmHg 58%
22:00 +9°C° 0 mm 3 mps 754 mmHg 59%
23:00 +9°C° 0 mm 3 mps 755 mmHg 60%

Day after tomorrow, 25 June, Friday

Time Temperature Precipitation Wind Pressure Humidity
00:00 +9°C° 0 mm 3 mps 755 mmHg 61%
01:00 +8°C° 0 mm 3 mps 755 mmHg 62%
02:00 +8°C° 0 mm 3 mps 755 mmHg 63%
03:00 +8°C° 0 mm 3 mps 755 mmHg 64%
04:00 +8°C° 0 mm 2 mps 755 mmHg 65%
05:00 +7°C° 0 mm 2 mps 755 mmHg 66%
06:00 +8°C° 0 mm 2 mps 755 mmHg 65%
07:00 +8°C° 0 mm 2 mps 755 mmHg 63%
08:00 +10°C° 0 mm 1 mps 755 mmHg 62%
09:00 +12°C° 0 mm 2 mps 755 mmHg 55%
10:00 +14°C° 0 mm 2 mps 755 mmHg 49%
11:00 +16°C° 0 mm 2 mps 755 mmHg 43%
12:00 +17°C° 0 mm 3 mps 755 mmHg 41%
13:00 +18°C° 0 mm 3 mps 754 mmHg 39%
14:00 +18°C° 0 mm 4 mps 754 mmHg 36%
15:00 +17°C° 0 mm 3 mps 754 mmHg 41%
16:00 +14°C° 0 mm 3 mps 754 mmHg 47%
17:00 +14°C° 0 mm 2 mps 754 mmHg 52%
18:00 +12°C° 0 mm 3 mps 754 mmHg 55%
19:00 +11°C° 0 mm 3 mps 754 mmHg 58%
20:00 +10°C° 0 mm 3 mps 755 mmHg 61%
21:00 +10°C° 0 mm 2 mps 755 mmHg 64%
22:00 +9°C° 0 mm 2 mps 755 mmHg 68%
23:00 +9°C° 0 mm 2 mps 755 mmHg 72%

26 June, Saturday

Time Temperature Precipitation Wind Pressure Humidity
00:00 +9°C° 0 mm 3 mps 755 mmHg 72%
01:00 +8°C° 0 mm 3 mps 756 mmHg 72%
02:00 +7°C° 0 mm 4 mps 756 mmHg 72%
03:00 +8°C° 0 mm 4 mps 756 mmHg 75%
04:00 +8°C° 0 mm 4 mps 756 mmHg 77%
05:00 +8°C° 0 mm 4 mps 756 mmHg 80%
06:00 +8°C° 0 mm 4 mps 757 mmHg 80%
07:00 +8°C° 0 mm 4 mps 758 mmHg 81%
08:00 +8°C° 0 mm 4 mps 758 mmHg 81%
09:00 +10°C° 0 mm 4 mps 759 mmHg 71%
10:00 +10°C° 0 mm 5 mps 759 mmHg 61%
11:00 +13°C° 0 mm 6 mps 760 mmHg 51%
12:00 +13°C° 0 mm 6 mps 760 mmHg 46%
13:00 +12°C° 0 mm 7 mps 759 mmHg 40%
14:00 +14°C° 0 mm 7 mps 759 mmHg 35%
15:00 +11°C° 0 mm 6 mps 760 mmHg 37%
16:00 +10°C° 0 mm 6 mps 760 mmHg 40%
17:00 +9°C° 0 mm 5 mps 761 mmHg 42%
18:00 +8°C° 0 mm 5 mps 762 mmHg 46%
19:00 +7°C° 0 mm 4 mps 763 mmHg 51%
20:00 +6°C° 0 mm 4 mps 763 mmHg 56%
21:00 +5°C° 0 mm 4 mps 764 mmHg 59%
22:00 +5°C° 0 mm 4 mps 764 mmHg 63%
23:00 +4°C° 0 mm 4 mps 765 mmHg 67%

27 June, Sunday

Time Temperature Precipitation Wind Pressure Humidity
00:00 +4°C° 0 mm 4 mps 765 mmHg 71%
01:00 +3°C° 0 mm 4 mps 765 mmHg 75%
02:00 +3°C° 0 mm 4 mps 765 mmHg 79%
03:00 +2°C° 0 mm 3 mps 765 mmHg 81%
04:00 +2°C° 0 mm 3 mps 765 mmHg 83%
05:00 +2°C° 0 mm 3 mps 766 mmHg 85%
06:00 +2°C° 0 mm 3 mps 766 mmHg 85%
07:00 +2°C° 0 mm 3 mps 767 mmHg 85%
08:00 +2°C° 0 mm 3 mps 767 mmHg 85%
09:00 +4°C° 0 mm 4 mps 768 mmHg 75%
10:00 +7°C° 0 mm 4 mps 768 mmHg 65%
11:00 +10°C° 0 mm 4 mps 768 mmHg 54%
12:00 +10°C° 0 mm 4 mps 768 mmHg 51%
13:00 +11°C° 0 mm 4 mps 767 mmHg 48%
14:00 +12°C° 0 mm 4 mps 767 mmHg 45%
15:00 +10°C° 0 mm 3 mps 767 mmHg 50%
16:00 +9°C° 0 mm 3 mps 767 mmHg 55%
17:00 +8°C° 0 mm 2 mps 767 mmHg 60%
18:00 +7°C° 0 mm 2 mps 768 mmHg 64%
19:00 +6°C° 0 mm 2 mps 768 mmHg 68%
20:00 +5°C° 0 mm 2 mps 768 mmHg 72%
21:00 +5°C° 0 mm 2 mps 769 mmHg 74%
22:00 +4°C° 0 mm 2 mps 769 mmHg 76%
23:00 +5°C° 0 mm 1 mps 769 mmHg 78%

28 June, Monday

Time Temperature Precipitation Wind Pressure Humidity
00:00 +5°C° 0 mm 1 mps 769 mmHg 79%
01:00 +4°C° 0 mm 1 mps 769 mmHg 80%
02:00 +4°C° 0 mm 1 mps 769 mmHg 81%
03:00 +4°C° 0 mm 1 mps 769 mmHg 82%
04:00 +3°C° 0 mm 0 mps 769 mmHg 83%
05:00 +2°C° 0 mm 0 mps 769 mmHg 84%
06:00 +3°C° 0 mm 0 mps 769 mmHg 82%
07:00 +3°C° 0 mm 0 mps 770 mmHg 81%
08:00 +3°C° 0 mm 0 mps 770 mmHg 79%
09:00 +6°C° 0 mm 1 mps 770 mmHg 71%
10:00 +8°C° 0 mm 1 mps 770 mmHg 62%
11:00 +10°C° 0 mm 1 mps 770 mmHg 54%
12:00 +10°C° 0 mm 2 mps 770 mmHg 50%
13:00 +12°C° 0 mm 2 mps 769 mmHg 47%
14:00 +13°C° 0 mm 2 mps 769 mmHg 43%
15:00 +12°C° 0 mm 2 mps 769 mmHg 47%
16:00 +9°C° 0 mm 2 mps 769 mmHg 52%
17:00 +8°C° 0 mm 2 mps 768 mmHg 56%
18:00 +7°C° 0 mm 2 mps 769 mmHg 59%
19:00 +6°C° 0 mm 2 mps 769 mmHg 63%
20:00 +5°C° 0 mm 2 mps 769 mmHg 67%
21:00 +5°C° 0 mm 2 mps 769 mmHg 69%
22:00 +4°C° 0 mm 3 mps 769 mmHg 72%
23:00 +3°C° 0 mm 3 mps 769 mmHg 74%
Show more

We Need Your Consent

Meteoprog and our Service Providers may store and access personal data such as cookies, device identifiers or other similar technologies on your device and process such data to personalise content and ads, as well as provide social media features and to analyse the traffic.

  • Store and/or access information on your device

    Cookies, device identifiers or other information can be stored or accessed on your device for the purposes indicated above.

  • Personalised ads and content, ad and content measurement, audience insights, and products development

    Ads and content can be personalised based on a profile. More data can be added to better personalise ads and content. Ad and content performance can be measured. Insights about the audience who saw the ads and content can be derived. Such data can be used to develop or improve user’s experience, systems and software.

By clicking ‘I Agree’ you will allow the use of indicated cookies, device identifiers, web beacons or other similar technologies. Your settings can be changed in the browser on your device.

For certain purposes, legitimate interests may be relied on, rather than consent. You can read more about this in our Privacy and Cookie Policy.